Temp
28 29 28 27 27 26 26 25 25 25 24 23 22 22 21 21 21 20 21 21 21 21 22 21 21 21 23 23 23 23 23 23 25 26 25 24 22 23 23 23 24 25 24
29 28 28 27 27 27 26 26 25 24 24 23 22 21 21 21 21 20 21 22 21 21 21 21 21 22 21 20 22 21 21 21 22 23 23 23 23 22 22 22 23 25 25
29 28 27 27 27 27 26 26 25 24 23 23 22 21 21 21 21 20 21 21 21 21 21 21 21 20 20 21 20 21 22 21 22 22 22 23 23 23 23 23 22 23 23
30 28 27 27 27 27 26 26 25 24 23 23 22 21 21 21 21 21 20 20 21 21 21 21 20 20 20 20 20 20 20 20 21 21 23 23 23 23 22 23 23 24 24
28 28 27 27 27 26 26 24 23 22 22 22 21 21 21 22 22 21 21 21 21 21 20 20 20 20 19 18 20 20 19 20 21 22 23 23 23 23 23 23 22 23 23
27 27 27 26 25 24 23 21 21 20 21 20 21 21 21 22 23 21 21 21 21 20 20 20 20 18 18 18 18 18 17 18 19 20 22 22 21 21 22 22 22 22 24
25 25 23 22 21 20 20 20 22 23 22 20 20 21 21 21 21 20 20 21 21 21 20 20 20 22 19 19 17 17 17 17 17 17 18 19 19 20 19 19 21 20 21
22 21 20 19 18 17 17 18 18 18 20 19 19 20 21 21 20 20 19 19 20 20 20 19 19 20 20 19 19 19 19 19 18 18 18 18 18 18 17 18 18 18 20
19 18 18 18 18 19 18 19 19 19 20 20 20 20 20 21 19 19 19 20 20 20 19 19 19 19 18 17 17 19 19 19 19 18 17 17 17 17 16 16 20 21 23
19 19 18 18 17 18 19 19 20 20 20 21 20 20 20 19 19 19 19 19 20 20 20 19 18 18 18 17 17 19 19 19 18 18 18 17 17 16 16 16 18 20 22
18 18 18 19 19 19 17 17 18 19 19 19 19 18 17 17 17 17 17 17 19 20 21 21 20 18 18 17 17 18 19 18 18 18 19 20 20 19 19 18 18 18 20
19 19 19 19 19 19 18 17 17 18 17 18 17 16 16 16 16 16 16 16 17 18 19 20 19 18 18 17 17 17 17 17 18 19 20 20 20 20 20 19 18 18 18
20 20 19 19 19 19 19 16 16 16 16 15 15 15 15 15 15 15 16 16 16 16 17 18 18 18 17 17 17 17 16 17 19 19 20 20 20 20 19 18 18 18 17
20 20 19 19 18 17 18 18 15 15 14 15 15 14 13 14 15 16 16 16 16 16 16 17 17 17 17 17 17 16 16 18 18 18 19 19 19 19 19 19 20 20 20
20 20 20 19 17 16 15 15 17 14 15 16 15 15 14 15 15 15 15 15 16 16 16 16 16 15 16 17 17 18 18 18 18 18 18 18 19 19 19 19 20 20 20
21 19 18 17 16 16 16 14 15 15 15 15 15 15 15 15 15 15 16 16 16 16 16 15 16 16 17 17 15 15 15 15 15 15 15 16 17 18 19 19 19 19 20
20 20 19 19 20 18 17 17 17 14 15 15 15 15 15 15 15 16 16 15 14 14 14 14 15 15 14 13 13 14 14 13 12 12 12 12 13 15 16 17 18 19 19
20 20 21 21 21 20 20 19 18 16 14 12 13 13 13 14 13 13 14 14 15 14 14 13 13 12 11 11 11 11 11 12 11 12 11 11 11 11 12 13 13 13 12
20 19 19 19 18 19 19 18 18 17 16 16 15 14 14 14 15 14 15 16 16 17 16 16 15 15 14 14 13 13 13 14 13 13 14 13 13 13 13 13 12 9 8
18 17 18 19 19 19 20 19 19 18 18 17 18 17 17 17 17 16 15 15 16 15 15 15 15 14 14 14 14 14 14 14 14 14 14 14 14 13 14 13 12 11 9
16 17 16 17 17 18 19 19 18 19 18 18 17 14 14 16 16 16 16 15 15 15 14 14 14 14 14 14 14 14 14 14 14 14 14 13 13 13 13 13 13 13 13
17 17 17 18 18 18 18 18 18 18 17 17 17 15 14 16 16 16 16 15 15 15 14 14 14 14 14 14 13 14 14 14 14 14 14 13 13 13 13 13 13 13 13
18 18 17 17 17 16 17 17 17 17 17 17 17 17 16 16 16 16 15 15 15 15 14 14 14 14 14 14 14 14 13 13 13 13 12 12 12 12 12 12 12 11 12
17 17 17 17 17 17 17 17 17 15 16 16 16 16 16 16 16 15 15 15 14 14 14 14 14 14 13 13 13 13 13 13 12 12 12 11 11 11 11 11 10 10 10
17 17 17 16 16 16 16 16 16 16 16 16 16 16 16 16 16 16 16 15 15 15 15 15 14 14 13 13 12 12 12 11 11 11 10 10 10 10 10 11 11 11 11
16 16 16 16 16 16 16 16 16 16 16 16 16 16 16 16 16 15 15 15 15 14 14 14 14 13 13 13 13 12 12 11 10 9 9 8 7 8 8 8 8 9 10
Height
784 787 791 794 796 799 800 802 803 805 807 808 810 812 812 813 815 816 817 816 818 819 819 820 821 822 820 820 819 818 818 817 814 811 812 814 816 815 814 813 812 811 810
779 783 786 789 792 795 798 799 802 803 805 807 809 810 810 810 811 813 814 816 816 818 819 820 820 820 821 821 819 818 818 818 818 815 813 813 813 814 813 812 810 808 808
774 777 780 783 787 790 793 796 799 802 803 805 806 807 809 810 811 811 813 814 815 815 817 818 819 820 820 820 821 819 817 817 816 815 814 812 812 811 810 810 810 810 808
769 772 775 778 781 784 788 792 795 798 800 801 803 806 807 807 808 811 811 813 814 814 815 817 818 818 819 820 820 821 819 817 815 814 812 810 810 810 810 808 806 805 805
768 770 772 775 778 782 786 789 793 797 799 801 803 803 804 806 806 808 810 810 811 813 813 813 815 817 817 818 818 818 820 818 814 813 811 809 807 807 806 806 805 803 801
767 770 770 774 776 780 783 785 791 793 796 795 797 798 801 802 802 804 807 808 808 810 811 812 813 814 815 816 815 816 818 818 818 815 812 810 812 810 807 807 806 804 800
768 769 771 773 777 778 778 783 779 785 788 788 794 795 794 797 798 800 803 806 808 808 808 809 811 810 812 813 813 814 815 813 814 813 813 812 811 809 809 807 805 806 803
771 774 776 778 780 781 782 779 778 781 788 785 786 790 790 791 794 798 803 806 807 807 807 807 808 809 811 810 810 811 812 811 811 811 809 808 809 808 807 807 806 805 801
775 777 779 780 781 781 781 780 779 779 778 777 779 781 785 787 790 791 802 806 805 806 805 805 805 806 808 808 809 808 809 810 807 806 806 805 805 804 803 804 800 797 794
779 780 780 781 780 779 777 774 771 770 768 769 772 776 777 782 784 786 788 806 804 806 803 802 801 803 805 805 806 805 807 807 807 805 803 800 801 800 800 799 800 796 793
781 781 781 781 780 779 775 769 762 760 761 763 767 772 775 777 780 787 787 801 802 803 802 800 798 800 801 802 804 804 805 804 805 802 799 796 796 796 796 796 797 797 794
783 783 782 782 780 777 772 764 755 753 756 761 763 769 772 777 781 785 788 795 804 803 798 799 796 799 799 800 801 803 802 801 801 798 796 793 792 791 792 793 793 793 792
783 783 783 782 780 777 773 768 758 758 759 762 765 768 772 776 782 787 791 798 799 799 796 795 794 796 798 801 799 801 801 800 798 795 793 790 789 789 790 789 789 789 788
783 783 783 783 783 781 779 775 773 770 769 772 774 779 782 785 787 791 793 796 794 793 793 792 792 794 795 801 798 799 800 797 795 794 792 789 788 787 785 784 784 784 782
785 785 786 785 784 783 781 781 782 780 782 779 782 782 784 787 790 791 791 792 791 789 790 790 789 789 792 795 796 795 796 794 793 791 789 787 785 783 782 779 779 779 778
788 789 788 788 787 788 788 787 786 786 787 786 787 788 788 789 789 789 789 789 789 788 787 788 788 789 790 791 792 792 793 792 791 790 789 786 784 780 779 776 775 774 772
791 792 792 790 790 791 791 790 790 791 788 788 789 789 789 789 789 788 789 789 788 789 790 790 790 791 792 791 791 791 791 790 789 787 785 784 782 780 778 775 773 769 768
793 793 792 791 791 790 790 790 791 793 795 795 795 794 793 793 792 792 791 791 790 791 791 791 791 792 791 792 791 790 789 789 787 785 784 784 782 781 779 777 774 772 771
796 796 794 794 795 795 793 793 793 795 796 797 798 798 798 796 795 795 793 792 791 790 790 790 791 790 789 789 788 787 786 786 785 784 783 782 780 778 777 774 772 772 771
798 798 798 796 795 797 796 795 796 797 797 798 798 798 798 796 796 795 795 794 793 792 793 791 791 790 788 787 786 785 784 784 784 782 780 779 776 775 773 772 771 770 769
801 802 801 801 801 799 798 799 799 798 798 799 801 804 802 799 797 797 796 795 794 792 792 790 790 789 787 786 787 787 785 782 780 778 776 775 775 774 771 769 767 765 764
805 805 805 805 804 803 803 802 802 802 802 801 800 803 803 800 798 798 797 795 794 793 792 791 790 788 787 787 786 783 781 779 776 775 774 773 771 769 767 765 763 762 760
807 807 808 808 808 807 806 805 804 804 803 803 802 801 801 800 799 797 796 795 793 792 791 789 787 786 784 783 781 780 778 777 775 773 772 771 769 767 765 764 762 761 758
810 810 810 810 809 808 807 807 807 807 807 805 803 803 802 800 798 797 795 794 792 790 788 786 785 783 783 781 779 777 774 772 771 770 769 768 766 764 762 760 759 758 758
812 812 812 812 812 811 810 809 808 807 806 805 803 801 799 797 795 792 790 788 786 784 782 780 778 777 776 774 773 771 768 767 766 765 764 762 760 758 756 754 751 749 749
815 815 814 814 812 812 811 809 808 807 805 804 802 800 797 795 792 790 787 785 783 781 778 775 773 772 770 766 764 762 760 759 758 757 756 754 752 751 749 748 746 744 742
Wind_Speed
20 20 19 18 18 18 17 17 16 14 13 13 12 11 9 7 6 5 5 4 5 4 3 2 1 2 2 2 4 4 5 5 7 7 5 5 8 6 8 9 10 9 11
20 20 21 20 17 17 16 16 15 14 12 11 11 11 10 9 8 7 7 5 5 4 4 2 2 1 1 1 3 3 3 5 8 7 8 8 6 6 6 7 7 9 6
18 20 21 21 20 18 17 17 15 14 13 13 13 13 11 10 9 9 8 7 7 6 4 3 3 3 3 3 4 4 3 4 6 9 10 9 8 8 6 7 6 6 8
18 19 20 21 20 18 17 16 16 15 15 15 15 14 13 12 11 10 10 9 6 6 4 4 4 4 4 4 4 4 3 5 4 8 8 8 7 5 7 7 7 4 6
16 16 17 17 17 16 14 13 12 11 11 13 13 14 14 14 13 13 11 10 9 7 6 5 6 6 5 4 5 2 5 6 6 8 8 7 6 6 6 6 8 8 9
12 12 13 13 15 15 14 14 9 9 14 16 19 18 17 16 16 17 13 12 11 10 8 7 7 7 6 6 4 4 3 4 5 6 8 7 5 7 6 7 8 7 8
7 8 5 10 12 17 17 13 8 12 22 21 21 21 20 18 16 17 17 12 11 10 8 6 8 9 9 7 6 6 6 5 5 4 7 8 8 6 7 9 8 9 10
2 3 5 8 8 4 0 7 11 20 25 22 23 22 20 18 17 15 15 14 12 9 8 7 8 8 8 8 8 9 8 7 7 7 9 10 10 8 7 9 10 12 14
14 12 9 5 2 10 14 17 23 24 24 25 25 25 22 18 18 15 11 13 12 11 10 8 8 8 10 11 11 10 9 9 8 8 10 9 12 13 13 10 11 11 11
7 3 4 6 8 11 15 20 24 25 27 24 25 24 22 19 16 16 16 14 11 12 9 9 10 10 12 7 8 8 9 8 7 7 7 8 11 11 11 13 12 13 12
5 6 7 8 9 11 15 20 22 23 22 22 20 18 17 16 13 15 15 13 11 8 9 6 5 7 10 10 9 8 8 6 9 10 8 7 7 7 7 9 11 14 15
7 7 8 9 10 14 19 26 16 12 17 16 19 18 17 14 12 15 14 15 12 8 4 6 3 6 5 7 7 10 11 9 10 10 10 9 8 7 7 7 8 11 14
2 4 6 9 10 14 19 24 19 8 15 15 13 20 15 12 13 12 9 9 10 13 9 8 7 6 7 9 9 11 11 10 10 11 11 11 10 9 10 11 12 12 13
5 7 9 11 13 15 16 18 22 23 27 27 23 20 15 12 11 7 10 14 14 18 20 16 13 11 9 11 9 11 11 10 10 13 14 14 13 13 13 12 13 12 14
8 9 9 7 7 9 15 14 15 15 12 18 17 20 18 13 12 11 10 11 13 15 13 10 8 9 11 13 12 11 10 10 10 12 13 14 14 14 15 14 15 16 16
10 10 9 8 8 8 9 14 14 9 5 8 8 5 5 5 8 9 9 11 10 8 6 8 10 11 10 7 4 6 8 8 7 8 12 12 14 14 14 15 16 18 19
7 5 6 5 6 6 7 7 12 18 17 15 13 9 8 8 6 4 3 3 3 1 1 1 1 2 3 3 4 5 6 6 10 8 11 11 12 12 15 15 16 19 18
2 3 4 5 5 4 4 6 7 10 11 15 16 16 14 13 11 8 6 3 5 6 4 3 3 2 2 1 1 2 3 4 4 5 4 6 7 9 10 10 11 12 15
7 7 7 8 9 9 8 8 8 9 8 7 7 9 8 10 10 11 8 5 4 4 2 2 2 2 1 1 2 3 4 5 6 6 6 6 7 8 9 10 10 10 11
9 10 10 10 10 7 7 8 7 7 6 6 6 7 7 5 6 8 7 7 5 5 5 4 5 5 5 5 5 5 6 6 6 8 8 9 9 11 11 11 10 11 10
10 9 10 9 8 6 5 5 5 5 5 6 7 7 7 7 7 7 7 6 7 7 6 7 7 6 6 6 6 8 10 10 11 11 11 12 12 13 13 14 14 14 14
9 8 8 6 6 6 6 6 6 6 6 6 5 4 7 6 7 7 7 6 6 7 8 8 10 10 10 10 12 13 14 15 15 15 15 16 17 17 17 17 16 16 16
5 5 6 6 7 5 6 6 6 6 6 6 6 7 8 9 9 9 10 10 10 11 12 12 13 14 13 14 15 16 18 18 19 18 17 17 19 20 19 19 19 20 19
6 6 7 8 7 7 7 6 5 5 7 8 8 8 8 9 10 10 11 11 12 13 13 14 14 15 16 17 18 18 19 17 16 17 18 21 20 22 21 20 19 19 18
7 7 7 7 7 6 5 6 5 6 7 7 8 9 10 11 13 14 14 14 15 16 17 16 17 16 18 18 20 23 24 24 24 24 26 27 27 26 26 27 26 25 23
5 5 4 3 4 4 5 6 7 7 8 9 11 12 14 17 19 21 21 20 21 24 26 25 25 25 26 27 26 25 22 22 24 25 26 24 24 27 29 31 29 29 30
Wind_Direction
212 215 217 220 220 222 227 224 222 220 213 209 203 202 198 197 200 214 220 203 205 209 210 213 278 319 323 311 313 308 307 303 291 288 309 301 312 302 306 305 289 279 244
214 216 219 222 225 222 226 218 222 223 220 219 213 206 204 198 196 198 196 197 194 196 204 223 213 216 263 302 300 322 306 293 297 293 296 289 292 307 305 311 304 292 279
212 214 220 218 218 223 217 219 221 224 223 219 214 208 209 206 204 197 202 192 195 193 207 229 257 266 272 304 307 303 308 297 286 296 296 284 292 286 293 285 298 301 267
215 215 213 214 216 218 217 218 222 224 220 214 215 218 215 206 203 206 199 195 194 190 206 240 255 254 272 268 261 276 280 302 295 285 297 300 291 295 287 277 289 256 284
229 224 218 219 214 213 212 213 219 230 234 231 226 219 217 213 211 203 200 194 196 205 209 220 234 244 245 261 273 298 308 298 308 300 291 290 289 327 310 310 275 282 264
242 244 234 217 209 196 178 161 192 226 237 223 220 218 216 221 218 205 200 208 207 212 225 234 240 249 258 286 266 265 276 313 314 323 305 345 286 290 283 293 297 306 293
236 241 176 157 160 164 171 180 157 258 247 229 229 221 212 214 222 219 213 220 222 220 224 234 245 239 217 247 260 271 275 299 295 283 296 300 302 308 312 293 306 303 288
125 142 125 117 113 96 338 193 237 260 249 232 223 219 216 211 216 221 221 224 230 228 231 227 234 247 246 229 236 246 260 263 269 285 291 288 285 288 294 293 288 285 274
82 90 89 67 340 292 286 267 260 258 247 234 223 210 210 206 207 195 226 228 235 233 229 233 231 231 237 244 239 241 251 268 277 294 307 292 276 268 264 277 276 279 283
84 69 352 338 328 318 305 295 279 267 253 231 222 211 199 191 191 185 177 241 241 249 236 234 241 221 241 253 229 232 253 268 282 288 295 297 298 288 287 251 265 275 281
37 38 40 27 3 345 331 321 290 270 248 232 216 203 183 178 178 191 173 223 246 237 258 235 221 240 236 251 242 242 250 255 282 284 285 288 294 278 266 245 249 259 268
66 68 48 21 10 1 354 347 331 281 246 231 191 167 166 170 188 185 177 200 243 230 279 263 215 243 222 225 215 229 245 266 276 280 283 288 292 286 267 257 262 265 255
65 29 14 8 7 6 16 18 30 54 89 86 91 83 89 124 148 156 156 215 220 251 243 263 233 249 244 247 235 245 260 268 276 284 288 286 282 283 279 272 267 263 266
42 26 54 50 48 39 37 49 60 73 88 94 99 102 100 100 103 145 188 217 232 252 251 247 254 246 236 246 255 265 261 269 280 287 292 292 288 278 274 269 269 273 269
64 69 63 71 80 69 59 52 61 67 78 103 112 118 126 146 186 208 232 255 255 255 250 238 243 242 238 240 250 256 267 273 280 288 290 293 289 281 276 273 264 264 265
86 81 73 62 60 72 79 73 68 75 81 98 125 146 181 232 228 222 226 244 255 252 247 238 239 236 240 248 279 273 281 290 298 302 299 294 290 287 284 283 277 267 268
71 71 61 53 57 64 70 70 84 66 75 80 81 88 89 81 75 83 77 112 106 107 285 277 281 263 260 282 279 278 278 284 293 298 301 315 315 313 313 296 292 285 278
72 48 8 11 15 18 51 78 77 83 80 67 72 75 75 73 67 62 72 79 95 73 56 56 65 65 75 347 346 314 312 309 309 308 318 311 317 311 309 304 307 314 319
51 38 44 49 42 45 60 73 89 102 103 107 109 82 62 61 56 54 53 38 26 21 36 40 6 331 340 304 328 313 313 317 322 313 307 307 312 311 308 312 315 317 318
58 61 45 43 53 42 43 59 59 66 59 54 51 30 17 5 9 20 34 32 33 27 17 21 8 359 358 347 340 335 317 306 311 316 320 315 317 315 311 310 307 310 311
75 66 70 66 54 40 46 46 51 34 29 24 62 37 32 351 13 7 1 9 5 2 2 355 342 335 320 313 305 301 296 302 305 307 308 307 307 305 306 306 304 301 296
72 72 71 66 61 52 49 43 38 32 24 17 25 48 8 340 351 348 348 329 325 329 322 319 314 316 310 301 299 298 300 299 299 299 300 300 300 299 296 296 296 297 296
58 64 69 70 76 82 64 51 44 41 39 21 7 358 354 354 346 341 335 324 318 313 310 304 301 295 297 298 296 293 291 291 293 293 296 293 292 293 294 289 294 303 298
66 71 72 65 49 48 41 43 53 49 7 5 1 354 346 338 332 329 319 320 312 308 306 301 299 297 294 290 295 297 293 289 285 282 288 293 289 289 290 278 271 269 278
77 74 66 57 49 41 40 21 12 359 351 348 346 338 334 329 324 320 315 311 305 298 293 289 287 290 293 297 290 284 281 281 279 274 277 280 276 276 279 277 279 277 275
74 72 62 38 22 6 357 347 343 340 337 335 330 326 331 330 329 330 324 318 318 316 309 303 302 301 296 296 297 294 289 283 285 281 278 275 273 265 258 262 268 274 270